Flag for U.S.A. Weather past 2 weeks in Milwaukee, Wisconsin, U.S.A.

Now
72 °F

Sunny.


Feels Like: 77 °F
Forecast: 59 / 71 °F
Wind: 5 mph from South

Location: Milwaukee / Timmerman

Current Time: Jul 30, 2014 at 6:28:15 PM

Latest Report: Jul 30, 2014 at 5:45 PM


Visibility: 10 mi

Pressure: 30.02 "Hg

Humidity: 53%

Dew point: 54 °F

Location of MilwaukeeLocation

Historic Weather in Milwaukee — Graph

°F

Milwaukee temperature yesterday

Maximum temperature yesterday: 77 °F (at 2:45 PM)
Minimum temperature yesterday: 55 °F (at 12:15 AM)
Average temperature yesterday: 61 °F

Past Weeks' High & Low Weather Summary

 TemperatureHumidityPressure
High88 °F (Jul 22, 5:45 PM)94% (Jul 15, 10:35 PM)30.21 "Hg (Jul 15, 10:35 PM)
Low50 °F (Jul 24, 5:35 AM)29% (Jul 24, 4:45 PM)29.69 "Hg (Jul 27, 1:45 PM)
Average64 °F69%30.03 "Hg
* Reported Jul 15 4:45 PM — Jul 30 4:45 PM, Milwaukee, Weather by CustomWeather, © 2014

Note: Actual official high and low records may vary slightly from our data, if they occured in-between our weather recording intervals... More about our weather records

Advertising

Milwaukee weather history for previous 24 hours

 ConditionsComfort  
Time TempWeatherWind HumidityBarometerVisibility
4:45 PM
Jul 30
70 °FSunny.7 mph53%30.02 "Hg10 mi
3:45 PM70 °FScattered clouds.7 mph53%30.04 "Hg10 mi
2:45 PM72 °FScattered clouds.5 mph53%30.04 "Hg10 mi
1:45 PM70 °FScattered clouds.No wind60%30.04 "Hg10 mi
12:45 PM70 °FPartly sunny.5 mph60%30.05 "Hg10 mi
11:45 AM68 °FMostly cloudy.6 mph64%30.06 "Hg10 mi
10:45 AM64 °FMostly cloudy.5 mph78%30.06 "Hg7 mi
9:45 AM64 °FOvercast.6 mph78%30.05 "Hg7 mi
8:45 AM63 °FPartly sunny.5 mph77%30.04 "Hg7 mi
7:45 AM61 °FPartly sunny.5 mph83%30.04 "Hg7 mi
6:45 AM57 °FSunny.5 mph88%30.03 "Hg10 mi
6:35 AM55 °FClear.No wind94%30.03 "Hg10 mi
6:15 AM55 °FClear.5 mph94%30.03 "Hg10 mi
5:55 AM57 °FClear.5 mph88%30.02 "Hg10 mi
5:35 AM57 °FClear.5 mph88%30.02 "Hg10 mi
5:15 AM57 °FPassing clouds.6 mph88%30.01 "Hg10 mi
4:55 AM57 °FPassing clouds.No wind88%30.01 "Hg10 mi
4:35 AM57 °FPartly cloudy.3 mph88%30.01 "Hg10 mi
4:15 AM57 °FOvercast.3 mph88%30.01 "Hg10 mi
3:55 AM57 °FOvercast.No wind88%30.01 "Hg10 mi
3:35 AM57 °FPassing clouds.3 mph88%30.00 "Hg10 mi
3:15 AM55 °FPassing clouds.3 mph94%30.00 "Hg10 mi
2:50 AM55 °FPassing clouds.3 mph94%30.00 "Hg10 mi
2:35 AM55 °FClear.3 mph94%30.00 "Hg10 mi
2:15 AM55 °FClear.No wind94%30.00 "Hg10 mi
1:55 AM57 °FClear.7 mph88%30.00 "Hg10 mi
1:35 AM57 °FClear.6 mph88%30.00 "Hg10 mi
1:15 AM55 °FClear.6 mph94%30.01 "Hg10 mi
12:55 AM55 °FClear.6 mph94%30.01 "Hg10 mi
12:35 AM55 °FClear.5 mph94%30.01 "Hg10 mi
12:15 AM57 °FClear.3 mph88%30.01 "Hg10 mi
11:55 PM
Jul 29
57 °FClear.3 mph88%30.02 "Hg10 mi
11:35 PM57 °FClear.No wind88%30.01 "Hg10 mi
11:15 PM57 °FClear.3 mph88%30.01 "Hg10 mi
10:55 PM57 °FClear.3 mph88%30.01 "Hg10 mi
10:35 PM59 °FClear.No wind88%30.01 "Hg10 mi
10:15 PM59 °FPassing clouds.No wind88%30.01 "Hg10 mi
9:55 PM59 °FPassing clouds.No wind88%30.01 "Hg10 mi
9:35 PM59 °FLight rain. Overcast.3 mph88%30.03 "Hg10 mi
9:15 PM59 °FRain. Cloudy.6 mph88%30.04 "Hg7 mi
8:45 PM61 °FRain. More clouds than sun.6 mph83%30.05 "Hg10 mi
7:45 PM66 °FOvercast.9 mph52%30.01 "Hg10 mi
Weather by CustomWeather, © 2014

See weather overviewHow to use our weather pages